Meteo orario Alio

Oggi, 25 Ottobre, Domenica

Tempo Temperatura Precipitazioni Vento Pressione Umidità
00:00 +14°C° 0 mm 3 m/s 738 mm Hg 57%
01:00 +14°C° 0 mm 4 m/s 738 mm Hg 58%
02:00 +14°C° 0 mm 4 m/s 737 mm Hg 59%
03:00 +13°C° 0 mm 5 m/s 737 mm Hg 59%
04:00 +13°C° 0 mm 5 m/s 737 mm Hg 60%
05:00 +13°C° 0 mm 5 m/s 736 mm Hg 61%
06:00 +13°C° 0 mm 5 m/s 736 mm Hg 62%
07:00 +14°C° 0 mm 6 m/s 736 mm Hg 59%
08:00 +15°C° 0 mm 6 m/s 736 mm Hg 56%
09:00 +16°C° 0 mm 6 m/s 736 mm Hg 53%
10:00 +17°C° 0 mm 6 m/s 736 mm Hg 50%
11:00 +19°C° 0 mm 6 m/s 735 mm Hg 47%
12:00 +20°C° 0 mm 5 m/s 735 mm Hg 44%
13:00 +20°C° 0 mm 5 m/s 734 mm Hg 44%
14:00 +20°C° 0 mm 5 m/s 734 mm Hg 44%
15:00 +20°C° 0 mm 5 m/s 733 mm Hg 44%
16:00 +19°C° 0 mm 4 m/s 733 mm Hg 48%
17:00 +18°C° 0 mm 2 m/s 733 mm Hg 51%
18:00 +16°C° 0 mm 0 m/s 733 mm Hg 55%
19:00 +17°C° 0 mm 2 m/s 733 mm Hg 58%
20:00 +17°C° 0 mm 3 m/s 733 mm Hg 61%
21:00 +15°C° 0 mm 4 m/s 733 mm Hg 63%
22:00 +15°C° 0 mm 4 m/s 733 mm Hg 65%
23:00 +14°C° 0 mm 5 m/s 733 mm Hg 67%

Domani, 26 Ottobre, Lunedi

Tempo Temperatura Precipitazioni Vento Pressione Umidità
00:00 +13°C° 0 mm 5 m/s 733 mm Hg 68%
01:00 +13°C° 0 mm 6 m/s 733 mm Hg 69%
02:00 +13°C° 0 mm 6 m/s 733 mm Hg 70%
03:00 +11°C° 0 mm 6 m/s 733 mm Hg 72%
04:00 +11°C° 0 mm 6 m/s 733 mm Hg 69%
05:00 +11°C° 0 mm 6 m/s 733 mm Hg 66%
06:00 +11°C° 0 mm 6 m/s 733 mm Hg 63%
07:00 +11°C° 0 mm 7 m/s 733 mm Hg 58%
08:00 +12°C° 0 mm 8 m/s 734 mm Hg 53%
09:00 +12°C° 0 mm 9 m/s 734 mm Hg 48%
10:00 +13°C° 0 mm 9 m/s 734 mm Hg 46%
11:00 +15°C° 0 mm 9 m/s 734 mm Hg 44%
12:00 +14°C° 0 mm 10 m/s 734 mm Hg 41%
13:00 +14°C° 0 mm 10 m/s 734 mm Hg 42%
14:00 +14°C° 0 mm 10 m/s 734 mm Hg 42%
15:00 +14°C° 0 mm 10 m/s 734 mm Hg 42%
16:00 +13°C° 0 mm 10 m/s 735 mm Hg 45%
17:00 +12°C° 0 mm 10 m/s 735 mm Hg 48%
18:00 +11°C° 0 mm 10 m/s 736 mm Hg 51%
19:00 +11°C° 0 mm 9 m/s 736 mm Hg 53%
20:00 +10°C° 0 mm 7 m/s 736 mm Hg 56%
21:00 +10°C° 0 mm 6 m/s 737 mm Hg 58%
22:00 +9°C° 0 mm 5 m/s 737 mm Hg 61%
23:00 +10°C° 0 mm 4 m/s 737 mm Hg 63%

Dopodomani, 27 Ottobre, Martedi

Tempo Temperatura Precipitazioni Vento Pressione Umidità
00:00 +9°C° 0 mm 3 m/s 737 mm Hg 66%
01:00 +8°C° 0 mm 4 m/s 737 mm Hg 67%
02:00 +8°C° 0 mm 4 m/s 737 mm Hg 67%
03:00 +8°C° 0 mm 5 m/s 737 mm Hg 68%
04:00 +8°C° 0 mm 5 m/s 737 mm Hg 68%
05:00 +8°C° 0 mm 4 m/s 737 mm Hg 68%
06:00 +8°C° 0 mm 4 m/s 737 mm Hg 68%
07:00 +10°C° 0 mm 4 m/s 737 mm Hg 63%
08:00 +11°C° 0 mm 4 m/s 737 mm Hg 59%
09:00 +12°C° 0 mm 4 m/s 737 mm Hg 54%
10:00 +13°C° 0 mm 5 m/s 737 mm Hg 50%
11:00 +14°C° 0 mm 5 m/s 737 mm Hg 47%
12:00 +15°C° 0 mm 5 m/s 737 mm Hg 43%
13:00 +16°C° 0 mm 5 m/s 737 mm Hg 41%
14:00 +16°C° 0 mm 5 m/s 736 mm Hg 40%
15:00 +16°C° 0 mm 5 m/s 736 mm Hg 39%
16:00 +15°C° 0 mm 4 m/s 736 mm Hg 43%
17:00 +14°C° 0 mm 4 m/s 736 mm Hg 46%
18:00 +13°C° 0 mm 3 m/s 736 mm Hg 50%
19:00 +12°C° 0 mm 3 m/s 737 mm Hg 52%
20:00 +12°C° 0 mm 3 m/s 737 mm Hg 55%
21:00 +11°C° 0 mm 3 m/s 737 mm Hg 57%
22:00 +11°C° 0 mm 3 m/s 737 mm Hg 59%
23:00 +12°C° 0 mm 2 m/s 737 mm Hg 60%

28 Ottobre, Mercoledi

Tempo Temperatura Precipitazioni Vento Pressione Umidità
00:00 +12°C° 0 mm 2 m/s 736 mm Hg 62%
01:00 +12°C° 0 mm 2 m/s 736 mm Hg 64%
02:00 +12°C° 0 mm 2 m/s 736 mm Hg 65%
03:00 +10°C° 0 mm 2 m/s 736 mm Hg 67%
04:00 +10°C° 0 mm 2 m/s 736 mm Hg 68%
05:00 +10°C° 0 mm 2 m/s 737 mm Hg 69%
06:00 +10°C° 0 mm 2 m/s 737 mm Hg 70%
07:00 +13°C° 0 mm 2 m/s 737 mm Hg 65%
08:00 +15°C° 0 mm 2 m/s 737 mm Hg 60%
09:00 +16°C° 0 mm 2 m/s 738 mm Hg 56%
10:00 +18°C° 0 mm 3 m/s 738 mm Hg 53%
11:00 +19°C° 0 mm 3 m/s 738 mm Hg 51%
12:00 +20°C° 0 mm 4 m/s 738 mm Hg 48%
13:00 +20°C° 0 mm 4 m/s 738 mm Hg 48%
14:00 +21°C° 0 mm 5 m/s 738 mm Hg 48%
15:00 +21°C° 0 mm 5 m/s 737 mm Hg 48%
16:00 +19°C° 0 mm 4 m/s 738 mm Hg 54%
17:00 +18°C° 0 mm 3 m/s 738 mm Hg 60%
18:00 +17°C° 0 mm 3 m/s 738 mm Hg 66%
19:00 +16°C° 0 mm 2 m/s 739 mm Hg 67%
20:00 +16°C° 0 mm 2 m/s 739 mm Hg 68%
21:00 +16°C° 0 mm 1 m/s 739 mm Hg 68%
22:00 +15°C° 0 mm 1 m/s 740 mm Hg 69%
23:00 +15°C° 0 mm 1 m/s 740 mm Hg 70%

29 Ottobre, Giovedi

Tempo Temperatura Precipitazioni Vento Pressione Umidità
00:00 +15°C° 0 mm 1 m/s 740 mm Hg 71%
01:00 +14°C° 0 mm 2 m/s 740 mm Hg 72%
02:00 +14°C° 0 mm 2 m/s 740 mm Hg 74%
03:00 +13°C° 0 mm 2 m/s 740 mm Hg 76%
04:00 +13°C° 0 mm 2 m/s 740 mm Hg 76%
05:00 +13°C° 0 mm 2 m/s 740 mm Hg 76%
06:00 +13°C° 0 mm 2 m/s 741 mm Hg 77%
07:00 +14°C° 0 mm 2 m/s 741 mm Hg 71%
08:00 +16°C° 0 mm 2 m/s 742 mm Hg 66%
09:00 +17°C° 0 mm 2 m/s 742 mm Hg 60%
10:00 +18°C° 0 mm 2 m/s 742 mm Hg 58%
11:00 +19°C° 0 mm 2 m/s 742 mm Hg 56%
12:00 +20°C° 0 mm 3 m/s 742 mm Hg 55%
13:00 +20°C° 0 mm 2 m/s 741 mm Hg 57%
14:00 +20°C° 0 mm 2 m/s 741 mm Hg 59%
15:00 +20°C° 0 mm 2 m/s 741 mm Hg 61%
16:00 +18°C° 0 mm 2 m/s 741 mm Hg 69%
17:00 +17°C° 0 mm 2 m/s 741 mm Hg 77%
18:00 +15°C° 0 mm 1 m/s 741 mm Hg 84%
19:00 +15°C° 0 mm 1 m/s 742 mm Hg 85%
20:00 +15°C° 0 mm 1 m/s 742 mm Hg 86%
21:00 +15°C° 0 mm 1 m/s 742 mm Hg 87%
22:00 +14°C° 0 mm 1 m/s 742 mm Hg 86%
23:00 +14°C° 0 mm 1 m/s 742 mm Hg 85%

30 Ottobre, Venerdi

Tempo Temperatura Precipitazioni Vento Pressione Umidità
00:00 +14°C° 0 mm 1 m/s 742 mm Hg 84%
01:00 +14°C° 0 mm 1 m/s 742 mm Hg 84%
02:00 +14°C° 0 mm 1 m/s 742 mm Hg 83%
03:00 +14°C° 0 mm 1 m/s 741 mm Hg 83%
04:00 +14°C° 0 mm 1 m/s 741 mm Hg 84%
05:00 +14°C° 0 mm 1 m/s 741 mm Hg 84%
06:00 +13°C° 0 mm 1 m/s 741 mm Hg 84%
07:00 +15°C° 0 mm 1 m/s 741 mm Hg 82%
08:00 +16°C° 0 mm 1 m/s 741 mm Hg 79%
09:00 +18°C° 0 mm 1 m/s 742 mm Hg 77%
10:00 +20°C° 0 mm 1 m/s 741 mm Hg 71%
11:00 +21°C° 0 mm 1 m/s 741 mm Hg 66%
12:00 +21°C° 0 mm 2 m/s 741 mm Hg 61%
13:00 +21°C° 0 mm 2 m/s 741 mm Hg 61%
14:00 +21°C° 0 mm 2 m/s 741 mm Hg 62%
15:00 +21°C° 0 mm 2 m/s 740 mm Hg 62%
16:00 +19°C° 0 mm 2 m/s 740 mm Hg 70%
17:00 +18°C° 0 mm 2 m/s 740 mm Hg 78%
18:00 +16°C° 0 mm 2 m/s 740 mm Hg 86%
19:00 +16°C° 0 mm 1 m/s 740 mm Hg 88%
20:00 +16°C° 0 mm 1 m/s 740 mm Hg 89%
21:00 +15°C° 0 mm 1 m/s 741 mm Hg 91%
22:00 +15°C° 0 mm 1 m/s 740 mm Hg 92%
23:00 +15°C° 0 mm 1 m/s 740 mm Hg 92%
Mostrare altro

Abbiamo bisogno del tuo consenso

Meteoprog e i nostri fornitori di servizi possono memorizzare e accedere a dati personali come cookie, identificatori di dispositivi o altre tecnologie simili sul tuo dispositivo e possono elaborare tali dati per personalizzare i contenuti e gli annunci, nonché fornire funzionalità dei social media e analizzarne il traffico.

  • Archiviare e/o accedere alle informazioni sul tuo dispositivo

    Cookie, identificatori di dispositivi o altre informazioni possono essere memorizzati o resi accessibili sul tuo dispositivo per le finalità sopra indicate.

  • Annunci e contenuti personalizzati, misurazione di annunci e contenuti, approfondimenti sul pubblico e sviluppo di prodotti

    Gli annunci e i contenuti possono essere personalizzati in base a un profilo. È possibile aggiungere più dati per personalizzare meglio annunci e contenuti. È possibile misurare il rendimento degli annunci e dei contenuti. È possibile ricavare informazioni sul pubblico che ha visto gli annunci e i contenuti. Tali dati possono essere utilizzati per sviluppare o migliorare l'esperienza, i sistemi e il software dell'utente.

Cliccando su “Accetto”, acconsenti all'uso di cookie, identificatori di dispositivo, web beacon o altre tecnologie simili. Puoi modificare le impostazioni nel browser del tuo dispositivo.

Per determinati scopi, è possibile fare affidamento su interessi legali, piuttosto che sul consenso. Puoi approfondire questo argomento consultando la nostra Informativa sulla privacy e sui cookie.